Location: Unspecified
(49.2170°N, 0.0000°E)
Time: 11:16:43
(UTC+00:00)

Transit 4A - Pass Details

Date: 25 June 2019
Orbit: 862 x 982 km, 66.8° (Epoch: 16 July)

Event Time Altitude Azimuth Distance (km) Brightness Sun altitude
Rises 07:41:34 0° 209° (SSW) 3,617 10.8 33.5°
Reaches altitude 10° 07:44:05 10° 208° (SSW) 2,690 10.2 33.9°
Maximum altitude 07:50:23 80° 123° (ESE) 995 8.9 34.9°
Drops below altitude 10° 07:56:50 10° 37° (NE) 2,745 10.9 36.0°
Sets 07:59:25 0° 37° (NE) 3,697 11.4 36.4°
